QPF
0.11 0.17 0.13 0.05 0.07 0.02 0.05 0.03 0.02 0.04 0.06 0.02 0.01 0.00 0.00 0.00 0.00 0.00 0.00 0.00 0.00 0.00
0.03 0.11 0.14 0.09 0.08 0.03 0.01 0.00 0.00 0.03 0.04 0.05 0.06 0.01 0.00 0.00 0.00 0.00 0.00 0.00 0.00 0.00
0.04 0.06 0.11 0.08 0.11 0.08 0.01 0.03 0.07 0.01 0.00 0.01 0.04 0.03 0.03 0.00 0.00 0.00 0.00 0.00 0.00 0.00
0.02 0.03 0.04 0.03 0.05 0.10 0.04 0.00 0.04 0.02 0.04 0.06 0.01 0.01 0.04 0.02 0.01 0.02 0.00 0.00 0.00 0.00
0.03 0.01 0.00 0.03 0.05 0.02 0.00 0.00 0.01 0.00 0.01 0.02 0.03 0.07 0.05 0.01 0.00 0.00 0.00 0.00 0.00 0.00
0.01 0.01 0.01 0.04 0.05 0.01 0.00 0.00 0.00 0.00 0.00 0.08 0.07 0.08 0.03 0.00 0.01 0.00 0.01 0.00 0.00 0.00
0.01 0.00 0.00 0.00 0.03 0.04 0.01 0.00 0.00 0.00 0.00 0.02 0.05 0.07 0.03 0.00 0.01 0.01 0.03 0.02 0.01 0.01
0.01 0.00 0.00 0.00 0.00 0.00 0.00 0.00 0.00 0.00 0.00 0.00 0.00 0.01 0.00 0.00 0.02 0.02 0.01 0.01 0.02 0.03
0.04 0.05 0.03 0.00 0.00 0.00 0.00 0.00 0.00 0.00 0.00 0.00 0.01 0.00 0.00 0.00 0.00 0.00 0.00 0.00 0.00 0.00
0.03 0.08 0.08 0.03 0.00 0.00 0.00 0.00 0.01 0.00 0.02 0.06 0.06 0.04 0.00 0.00 0.00 0.00 0.00 0.03 0.03 0.00
0.01 0.03 0.06 0.08 0.04 0.01 0.00 0.00 0.01 0.01 0.02 0.01 0.01 0.00 0.00 0.02 0.00 0.01 0.01 0.02 0.04 0.03
0.00 0.00 0.00 0.01 0.01 0.00 0.00 0.00 0.01 0.01 0.01 0.01 0.01 0.00 0.00 0.02 0.03 0.06 0.06 0.03 0.02 0.03
0.00 0.00 0.00 0.00 0.01 0.02 0.01 0.00 0.00 0.00 0.00 0.00 0.00 0.00 0.00 0.01 0.01 0.01 0.02 0.02 0.02 0.09
0.00 0.00 0.00 0.00 0.00 0.00 0.00 0.00 0.00 0.00 0.00 0.00 0.00 0.01 0.01 0.00 0.00 0.00 0.00 0.00 0.00 0.01
MSLP
1020.74 1020.72 1020.75 1020.67 1020.46 1020.32 1020.81 1020.98 1021.37 1021.63 1021.81 1021.88 1021.98 1022.08 1022.35 1022.17 1022.09 1022.17 1022.39 1022.55 1022.49 1021.76
1020.36 1020.75 1020.88 1020.72 1020.75 1020.47 1020.56 1020.31 1020.93 1021.29 1021.56 1021.72 1021.95 1022.04 1022.13 1022.01 1022.24 1022.34 1022.57 1022.49 1022.64 1022.25
1019.97 1020.38 1020.70 1020.71 1020.65 1020.50 1020.36 1020.50 1020.78 1021.01 1021.22 1021.48 1021.72 1021.86 1022.13 1021.83 1022.12 1022.40 1022.40 1022.41 1022.53 1022.56
1019.74 1019.88 1020.25 1020.23 1020.29 1020.31 1020.39 1020.49 1020.84 1021.04 1021.12 1021.30 1021.54 1021.66 1022.04 1022.10 1021.92 1022.35 1022.41 1022.49 1022.56 1022.49
1019.65 1019.66 1019.77 1019.89 1019.91 1019.74 1020.03 1020.26 1020.42 1020.58 1020.94 1021.05 1021.23 1021.36 1021.77 1021.92 1021.72 1022.17 1022.29 1022.27 1022.27 1022.28
1019.09 1019.31 1019.46 1019.69 1019.88 1019.83 1020.06 1020.14 1020.14 1020.53 1020.72 1020.83 1021.17 1021.41 1021.56 1021.60 1021.73 1021.85 1021.98 1022.01 1021.98 1021.97
1019.01 1019.18 1019.26 1019.38 1019.75 1019.98 1020.05 1020.08 1020.10 1020.25 1020.40 1020.46 1020.70 1021.15 1021.16 1021.36 1021.52 1021.61 1021.56 1021.76 1021.78 1021.73
1019.33 1019.39 1019.41 1019.51 1019.61 1019.81 1020.02 1019.98 1020.03 1020.13 1020.18 1020.19 1020.50 1020.65 1020.86 1021.15 1021.31 1021.52 1021.45 1021.39 1021.35 1021.19
1019.78 1020.04 1019.88 1019.87 1019.93 1020.02 1020.10 1020.18 1020.19 1020.16 1020.19 1020.34 1020.53 1021.24 1020.84 1021.35 1020.95 1021.00 1021.05 1021.02 1021.05 1020.95
1020.27 1020.26 1020.21 1020.11 1020.21 1020.14 1020.20 1020.33 1020.40 1020.33 1020.37 1020.90 1021.63 1022.66 1022.27 1021.71 1021.25 1020.65 1020.54 1020.72 1020.80 1020.64
1020.59 1020.89 1020.81 1020.55 1020.38 1020.50 1020.54 1020.53 1020.55 1020.72 1021.43 1021.87 1022.72 1023.05 1022.77 1022.16 1021.27 1020.69 1020.50 1020.36 1020.62 1020.88
1021.01 1021.25 1021.38 1021.35 1021.16 1021.11 1020.85 1020.88 1021.30 1021.75 1022.12 1022.83 1023.55 1023.60 1022.82 1022.37 1021.30 1021.02 1021.31 1021.38 1021.45 1021.52
1021.24 1021.05 1021.15 1021.54 1021.82 1021.60 1021.61 1021.58 1022.01 1022.59 1023.01 1023.72 1024.29 1024.10 1023.38 1022.64 1022.00 1021.97 1021.87 1022.26 1022.22 1022.49
1021.81 1021.79 1021.99 1022.12 1021.89 1021.88 1021.93 1021.96 1022.42 1022.90 1023.22 1024.38 1024.66 1024.54 1024.65 1024.13 1023.62 1023.19 1022.11 1021.75 1021.95 1022.33
Thickness
5763 5764 5765 5768 5770 5773 5768 5769 5768 5768 5767 5768 5769 5770 5770 5772 5774 5776 5777 5777 5778 5786
5766 5764 5763 5767 5769 5774 5773 5774 5772 5770 5770 5770 5770 5770 5771 5774 5773 5775 5775 5777 5777 5782
5769 5768 5766 5768 5768 5772 5774 5773 5773 5772 5772 5772 5771 5772 5771 5776 5774 5774 5777 5779 5778 5778
5769 5770 5769 5771 5771 5772 5772 5773 5772 5771 5772 5773 5773 5773 5772 5773 5777 5774 5775 5776 5777 5778
5766 5770 5771 5771 5773 5773 5773 5773 5773 5772 5772 5774 5773 5773 5772 5773 5778 5774 5774 5776 5778 5778
5766 5768 5769 5769 5769 5771 5771 5772 5773 5772 5772 5773 5771 5771 5772 5774 5774 5775 5775 5777 5777 5777
5760 5763 5766 5768 5766 5766 5769 5770 5771 5772 5773 5774 5773 5772 5774 5774 5774 5774 5777 5776 5776 5777
5752 5755 5759 5761 5763 5763 5763 5767 5768 5769 5771 5772 5773 5774 5773 5773 5773 5771 5772 5774 5776 5776
5743 5744 5748 5751 5753 5755 5756 5758 5761 5764 5767 5768 5772 5766 5768 5768 5772 5772 5771 5771 5773 5774
5732 5735 5738 5743 5743 5745 5748 5750 5753 5757 5760 5760 5759 5751 5755 5759 5765 5770 5771 5770 5771 5774
5722 5722 5724 5730 5732 5733 5736 5740 5743 5746 5746 5746 5743 5742 5746 5749 5759 5764 5766 5769 5769 5768
5712 5712 5713 5715 5719 5720 5726 5729 5728 5730 5731 5730 5728 5729 5737 5742 5752 5753 5750 5752 5753 5755
5706 5711 5710 5708 5706 5710 5712 5714 5713 5714 5714 5713 5712 5712 5722 5726 5738 5737 5738 5736 5738 5739
5696 5697 5697 5698 5701 5702 5703 5705 5704 5703 5705 5701 5702 5700 5697 5703 5714 5718 5728 5732 5733 5733